[[{"header":{"parameterUnit":"m.s-1","parameterCategory":1,"la1":30.2991,"la2":30.254,"lo1":-89.0895,"lo2":-89.0444,"dy":0.0017,"dx":0.0017,"nx":28,"ny":28,"refTime":"2024-07-07T03:00:00:Z","depth":0,"parameterNumber":2,"parameterNumberName":"U-component_of_WINDS"},"data":[0,0,0,0,0,0,0,0,0,0,0,0,0,0,0,0,0,0,0,0,0,0,0,0,0,0,0,0,0,0,0,0,0,0,0,0,0,0,0,0,0,0,0,0,0,0,0,0,0,0,0,0,0,0,0,0,0,0,-0.5977,-0.5975,0,-0.5811,-0.5809,-0.5807,-0.5718,-0.5718,-0.5718,-0.5718,-0.5545,-0.554,-0.5536,0,0,0,0,0,0,0,0,0,0,0,0,0,-0.6217,-0.6213,-0.5977,-0.5975,-0.5973,-0.5811,-0.5809,-0.5806,-0.5718,-0.5718,-0.5718,-0.5718,-0.5546,-0.5541,-0.5536,0,0,0,0,0,0,0,0,0,0,0,0,0,-0.6088,-0.6211,-0.5977,-0.5909,-0.5902,-0.5811,-0.5809,-0.5806,-0.5718,-0.5718,-0.5718,-0.5718,-0.5548,-0.5542,-0.5535,-0.5499,0,0,-0.5515,-0.5512,0,0,0,0,0,0,0,0,-0.6095,-0.6079,-0.5921,-0.5914,-0.5905,-0.5785,-0.583,-0.5703,-0.5718,-0.5788,-0.5718,-0.5717,-0.5625,-0.5612,-0.5581,-0.5491,-0.5483,-0.5514,-0.551,-0.5507,-0.5505,0,0,0,0,0,0,0,-0.6104,-0.6086,-0.5911,-0.5919,-0.5909,-0.5887,-0.5868,-0.5805,-0.571,-0.5782,-0.5775,-0.5757,-0.562,-0.5588,-0.5576,-0.5481,-0.5514,-0.5508,-0.5504,-0.5501,-0.5354,-0.5354,0,0,0,0,0,0,-0.6124,-0.6094,-0.5916,-0.5906,-0.6002,-0.5883,-0.5862,-0.5824,-0.571,-0.5693,-0.5757,-0.5753,-0.5599,-0.5584,-0.557,-0.5521,-0.5507,-0.5501,-0.5497,-0.5353,-0.5354,-0.5354,0,0,0,0,0,0,-0.613,-0.6109,-0.5923,-0.5998,-0.5972,-0.5879,-0.5837,-0.5821,-0.5788,-0.5691,-0.5674,-0.5741,-0.5598,-0.5579,-0.5518,-0.5513,-0.5498,-0.5492,-0.5353,-0.5353,-0.5354,-0.5422,0,0,0,0,0,0,-0.6137,-0.6112,-0.6097,-0.5998,-0.5969,-0.5874,-0.5836,-0.5817,-0.5777,-0.577,-0.5672,-0.5656,-0.5597,-0.5528,-0.5511,-0.5504,-0.5486,-0.5353,-0.5353,-0.5354,-0.542,-0.5424,-0.5428,0,0,0,0,0,-0.6146,-0.6122,-0.6097,-0.6076,-0.5949,-0.5874,-0.5857,-0.5791,-0.5777,-0.5761,-0.57,-0.5659,-0.5517,-0.5522,-0.5502,-0.5493,-0.5353,-0.5353,-0.5354,-0.5418,-0.5423,-0.5428,0,0,0,0,0,0,-0.6221,-0.6108,-0.6079,-0.6022,-0.5959,-0.5859,-0.5837,-0.5799,-0.5737,-0.5733,-0.5652,-0.5631,-0.5577,-0.5529,-0.5537,-0.5453,-0.5431,-0.5427,-0.5486,-0.5491,-0.5496,-0.5508,-0.5481,0,0,0,0,0,-0.6232,-0.6181,-0.6084,-0.6044,-0.6014,-0.5932,-0.5896,-0.5851,-0.5781,-0.5754,-0.5687,-0.5621,-0.5561,-0.5523,-0.5463,-0.5413,-0.539,-0.5397,-0.5401,-0.5405,-0.5403,-0.5373,-0.5375,-0.5354,-0.5354,-0.5354,0,0,-0.6252,-0.6184,-0.6156,-0.6057,-0.6003,-0.5952,-0.5909,-0.5857,-0.5818,-0.5745,-0.5683,-0.5633,-0.5553,-0.5498,-0.5469,-0.5456,-0.5404,-0.5406,-0.541,-0.5404,-0.5374,-0.5376,-0.5378,-0.5354,-0.5354,-0.5354,0,0,-0.6263,-0.6206,-0.6167,-0.6114,-0.6032,-0.5978,-0.5969,-0.5876,-0.584,-0.5777,-0.5722,-0.5674,-0.5573,-0.5519,-0.5479,-0.5472,-0.5432,-0.5455,-0.5478,-0.545,-0.5452,-0.5453,-0.5451,-0.5451,-0.5453,-0.5453,-0.5453,0,-0.6298,-0.622,-0.6151,-0.6103,-0.6061,-0.5995,-0.5954,-0.5906,-0.5809,-0.5781,-0.5768,-0.5641,-0.5582,-0.5514,-0.5513,-0.5482,-0.5469,-0.5465,-0.5457,-0.5458,-0.5458,-0.5455,-0.5455,-0.5456,-0.5456,-0.5456,-0.5455,0,-0.6268,-0.6214,-0.6192,-0.6102,-0.6058,-0.6014,-0.5938,-0.5902,-0.5861,-0.5809,-0.5746,-0.5675,-0.5599,-0.558,-0.5538,-0.5505,-0.55,-0.5473,-0.5449,-0.5464,-0.5461,-0.5459,-0.5461,-0.546,-0.5459,-0.5458,0,0,-0.6319,-0.6194,-0.6187,-0.6146,-0.6052,-0.6009,-0.5963,-0.589,-0.5861,-0.5797,-0.5756,-0.5673,-0.5649,-0.5603,-0.5555,-0.5531,-0.5532,-0.5507,-0.5504,-0.5514,-0.5492,-0.5513,-0.5512,-0.5505,-0.5505,-0.5504,-0.5499,0,-0.6317,-0.6231,-0.6169,-0.6107,-0.6057,-0.5995,-0.5954,-0.5892,-0.5843,-0.5793,-0.5737,-0.5681,-0.5652,-0.5624,-0.5598,-0.5537,-0.5526,-0.5537,-0.5466,-0.5464,-0.5488,-0.551,-0.5531,-0.5529,-0.5497,-0.5496,-0.5496,0,-0.6302,-0.6242,-0.6176,-0.6089,-0.6066,-0.603,-0.596,-0.5914,-0.5843,-0.5808,-0.5759,-0.5711,-0.5659,-0.5641,-0.5568,-0.5577,-0.5545,-0.5511,-0.5509,-0.5499,-0.5481,-0.5501,-0.5527,-0.5527,-0.5493,-0.5493,-0.5493,0,-0.6348,-0.625,-0.6198,-0.6164,-0.6062,-0.6039,-0.5995,-0.5924,-0.5885,-0.5824,-0.5798,-0.5731,-0.5694,-0.5644,-0.5579,-0.5571,-0.5513,-0.5489,-0.5483,-0.5485,-0.5473,-0.5474,-0.5494,-0.5453,-0.5453,-0.5453,-0.5453,0,-0.6352,-0.6313,-0.6217,-0.6185,-0.614,-0.607,-0.6028,-0.5978,-0.5916,-0.5873,-0.5815,-0.5776,-0.5693,-0.5644,-0.5593,-0.5541,-0.5525,-0.5495,-0.5482,-0.55,-0.5504,-0.5477,-0.5476,-0.5453,-0.5453,-0.5453,-0.5453,0,-0.6394,-0.6328,-0.6267,-0.6176,-0.6152,-0.6124,-0.6045,-0.6012,-0.596,-0.5907,-0.589,-0.5808,-0.5748,-0.5679,-0.5594,-0.556,-0.5513,-0.5493,-0.5537,-0.5529,-0.5527,-0.5529,-0.553,-0.5527,-0.5489,-0.5489,-0.5489,0,-0.6401,-0.637,-0.6277,-0.6245,-0.6203,-0.6151,-0.6112,-0.6042,-0.6004,-0.5922,-0.5898,-0.5834,-0.5778,-0.5685,-0.5617,-0.5553,-0.5532,-0.5537,-0.5522,-0.5542,-0.5532,-0.5535,-0.5532,-0.5541,-0.5542,-0.5542,-0.5543,0,-0.642,-0.639,-0.6336,-0.6271,-0.6226,-0.6172,-0.6114,-0.6091,-0.601,-0.597,-0.5908,-0.5865,-0.5781,-0.5718,-0.5646,-0.56,-0.5558,-0.5549,-0.5544,-0.5562,-0.5589,-0.5575,-0.5548,-0.5548,-0.5548,-0.5548,-0.5547,-0.5547,-0.6445,-0.6415,-0.6345,-0.6288,-0.6238,-0.6187,-0.6151,-0.6096,-0.6043,-0.597,-0.5932,-0.5871,-0.5802,-0.5702,-0.5657,-0.5609,-0.5595,-0.5587,-0.5586,-0.5585,-0.5591,-0.5597,-0.5595,-0.5595,-0.5595,-0.5594,-0.5594,0,-0.6461,-0.6414,-0.6362,-0.6285,-0.624,-0.6206,-0.6142,-0.6106,-0.6054,-0.5993,-0.5941,-0.5871,-0.581,-0.5739,-0.5673,-0.5648,-0.5627,-0.5633,-0.5634,-0.5624,-0.5607,-0.5618,-0.5651,-0.5651,-0.5651,-0.5651,-0.5651,-0.5651,-0.6465,-0.6413,-0.6375,-0.6299,-0.6251,-0.6192,-0.6158,-0.6111,-0.6062,-0.5987,-0.5937,-0.5891,-0.5827,-0.5757,-0.5699,-0.568,-0.5659,-0.567,-0.5646,-0.563,-0.5625,-0.5621,-0.5631,-0.5666,-0.5666,-0.5667,-0.5667,-0.5667]},{"header":{"parameterUnit":"m.s-1","parameterCategory":1,"la1":30.2991,"la2":30.254,"lo1":-89.0895,"lo2":-89.0444,"dy":0.0017,"dx":0.0017,"nx":28,"ny":28,"refTime":"2024-07-07T03:00:00:Z","depth":0,"parameterNumber":3,"parameterNumberName":"V-component_of_WINDS"},"data":[0,0,0,0,0,0,0,0,0,0,0,0,0,0,0,0,0,0,0,0,0,0,0,0,0,0,0,0,0,0,0,0,0,0,0,0,0,0,0,0,0,0,0,0,0,0,0,0,0,0,0,0,0,0,0,0,0,0,4.2591,4.2591,0,4.2559,4.2559,4.2558,4.2542,4.2543,4.2543,4.2543,4.2506,4.2505,4.2504,0,0,0,0,0,0,0,0,0,0,0,0,0,4.2637,4.2636,4.2591,4.2591,4.259,4.2559,4.2559,4.2558,4.2542,4.2543,4.2543,4.2543,4.2507,4.2506,4.2504,0,0,0,0,0,0,0,0,0,0,0,0,0,4.2612,4.2636,4.2591,4.2579,4.2577,4.2559,4.2559,4.2558,4.2542,4.2543,4.2543,4.2543,4.2507,4.2506,4.2504,4.2495,0,0,4.25,4.2499,0,0,0,0,0,0,0,0,4.2614,4.2611,4.2581,4.258,4.2578,4.2555,4.2562,4.2537,4.2542,4.2556,4.2543,4.2543,4.2522,4.252,4.2513,4.2493,4.2492,4.25,4.2499,4.2498,4.2498,0,0,0,0,0,0,0,4.2615,4.2612,4.2578,4.2581,4.2579,4.2574,4.2571,4.2557,4.2539,4.2555,4.2553,4.255,4.2521,4.2515,4.2512,4.2491,4.25,4.2498,4.2497,4.2497,4.2464,4.2464,0,0,0,0,0,0,4.2619,4.2613,4.2579,4.2577,4.2596,4.2574,4.257,4.2562,4.2539,4.2536,4.255,4.2549,4.2517,4.2514,4.2511,4.25,4.2498,4.2497,4.2496,4.2464,4.2464,4.2464,0,0,0,0,0,0,4.262,4.2617,4.2581,4.2595,4.259,4.2573,4.2565,4.2562,4.2555,4.2536,4.2532,4.2547,4.2517,4.2513,4.25,4.2498,4.2496,4.2495,4.2464,4.2464,4.2464,4.2477,0,0,0,0,0,0,4.2622,4.2617,4.2614,4.2595,4.259,4.257,4.2565,4.2561,4.2553,4.2552,4.2532,4.2528,4.2517,4.2502,4.2498,4.2496,4.2494,4.2464,4.2464,4.2464,4.2476,4.2477,4.2478,0,0,0,0,0,4.2624,4.2617,4.2614,4.261,4.2585,4.257,4.2567,4.2555,4.2553,4.2549,4.2537,4.2529,4.2499,4.2501,4.2496,4.2494,4.2464,4.2464,4.2464,4.2476,4.2477,4.2478,0,0,0,0,0,0,4.2634,4.2615,4.261,4.2598,4.2586,4.2568,4.2563,4.2556,4.2543,4.2543,4.2527,4.2523,4.2511,4.2501,4.2503,4.2485,4.2481,4.248,4.2492,4.2492,4.2493,4.2496,4.2492,0,0,0,0,0,4.2636,4.2626,4.2609,4.26,4.2595,4.258,4.2573,4.2565,4.2551,4.2546,4.2533,4.2519,4.2507,4.2499,4.2487,4.2475,4.2471,4.2471,4.2472,4.2473,4.2472,4.2466,4.2467,4.2463,4.2463,4.2463,0,0,4.2638,4.2626,4.2621,4.2602,4.2592,4.2582,4.2576,4.2565,4.2558,4.2544,4.2531,4.2521,4.2505,4.2493,4.2487,4.2484,4.2472,4.2473,4.2473,4.2472,4.2466,4.2467,4.2467,4.2463,4.2463,4.2463,0,0,4.2637,4.2627,4.2619,4.2609,4.2595,4.2585,4.2583,4.2566,4.256,4.2547,4.2537,4.2528,4.2506,4.2496,4.2488,4.2485,4.2478,4.2481,4.2485,4.248,4.248,4.248,4.248,4.248,4.2481,4.2481,4.2481,0,4.264,4.2626,4.2615,4.2606,4.2598,4.2588,4.2579,4.257,4.2552,4.2547,4.2545,4.2519,4.2508,4.2494,4.2493,4.2487,4.2484,4.2483,4.2481,4.2481,4.2481,4.2481,4.2481,4.2482,4.2481,4.2481,4.2481,0,4.2632,4.2622,4.2618,4.2602,4.2594,4.2585,4.2573,4.2566,4.2559,4.255,4.2538,4.2524,4.2509,4.2505,4.2497,4.249,4.2489,4.2484,4.248,4.2482,4.2482,4.2481,4.2482,4.2482,4.2482,4.2482,0,0,4.2635,4.2616,4.2614,4.2608,4.2592,4.2584,4.2575,4.2562,4.2557,4.2545,4.2537,4.2521,4.2517,4.2508,4.2499,4.2494,4.2494,4.249,4.249,4.2492,4.2487,4.2491,4.2491,4.249,4.249,4.2489,4.2488,0,4.2632,4.2617,4.2607,4.2596,4.2587,4.2578,4.257,4.2559,4.2551,4.2542,4.2532,4.2521,4.2517,4.2511,4.2506,4.2495,4.2493,4.2495,4.2482,4.2482,4.2487,4.249,4.2494,4.2493,4.2488,4.2488,4.2488,0,4.2626,4.2616,4.2604,4.2591,4.2587,4.258,4.2569,4.256,4.2548,4.2543,4.2534,4.2526,4.2516,4.2513,4.25,4.2502,4.2496,4.249,4.249,4.2488,4.2485,4.2489,4.2493,4.2493,4.2487,4.2487,4.2487,0,4.263,4.2614,4.2605,4.26,4.2584,4.258,4.2573,4.2561,4.2554,4.2544,4.254,4.2528,4.2521,4.2512,4.2501,4.25,4.249,4.2486,4.2485,4.2485,4.2482,4.2482,4.2486,4.2478,4.2478,4.2478,4.2478,0,4.2627,4.262,4.2607,4.2601,4.2594,4.2583,4.2576,4.2568,4.2558,4.2551,4.2542,4.2535,4.2521,4.2512,4.2504,4.2495,4.2491,4.2487,4.2484,4.2487,4.2488,4.2483,4.2483,4.2478,4.2478,4.2478,4.2478,0,4.263,4.2621,4.2611,4.2598,4.2594,4.2589,4.2578,4.2572,4.2564,4.2555,4.2552,4.2539,4.2529,4.2518,4.2503,4.2498,4.2489,4.2486,4.2494,4.2492,4.2492,4.2493,4.2492,4.2492,4.2485,4.2485,4.2485,0,4.2629,4.2624,4.2611,4.2606,4.26,4.2592,4.2586,4.2576,4.257,4.2557,4.2553,4.2543,4.2534,4.2518,4.2507,4.2496,4.2493,4.2493,4.2491,4.2495,4.2493,4.2494,4.2494,4.2494,4.2494,4.2494,4.2494,0,4.2628,4.2624,4.2616,4.2607,4.2601,4.2593,4.2584,4.2581,4.2569,4.2563,4.2553,4.2547,4.2533,4.2523,4.2512,4.2504,4.2497,4.2496,4.2495,4.2498,4.2503,4.2501,4.2496,4.2495,4.2495,4.2495,4.2495,4.2495,4.2629,4.2624,4.2615,4.2607,4.26,4.2593,4.2588,4.258,4.2572,4.2561,4.2556,4.2547,4.2536,4.2521,4.2513,4.2506,4.2504,4.2502,4.2502,4.2502,4.2503,4.2504,4.2504,4.2504,4.2504,4.2504,4.2504,0,4.2627,4.2622,4.2615,4.2604,4.2598,4.2594,4.2585,4.258,4.2573,4.2564,4.2556,4.2546,4.2537,4.2526,4.2516,4.2513,4.2509,4.251,4.251,4.2509,4.2505,4.2507,4.2513,4.2513,4.2513,4.2513,4.2513,4.2513,4.2626,4.2619,4.2615,4.2604,4.2598,4.259,4.2586,4.2579,4.2573,4.2562,4.2555,4.2549,4.2539,4.2529,4.2521,4.2518,4.2515,4.2517,4.2513,4.251,4.2509,4.2508,4.251,4.2516,4.2516,4.2517,4.2517,4.2517]}]]